Deer Park, WA

2:56 AM PDT on April 23, 2018 (GMT -0700)
Deer Park

Weather History for KDEW - March, 2012

Change the Weather History Date:

Tuesday, March 20, 2012

  Actual Average Record
Temperature  
Mean Temperature 40 °F 39 °F  
Max Temperature 49 °F 50 °F 69 °F (1999)
Min Temperature 30 °F 28 °F 19 °F (2002)
Degree Days  
Heating Degree Days 25 26  
Month to date heating degree days 558 577  
Since 1 July heating degree days 5697 5942  
Cooling Degree Days 0 0  
Month to date cooling degree days 0 0  
Year to date cooling degree days 0 0  
Moisture  
Dew Point 30 °F    
Average Humidity 65    
Maximum Humidity 92    
Minimum Humidity 37    
Precipitation  
Precipitation 0.19 in 0.07 in 0.63 in (2013)
Month to date precipitation 2.32 1.21  
Year to date precipitation 6.48 5.44  
Sea Level Pressure  
Sea Level Pressure 29.69 in    
Wind  
Wind Speed 14 mph (South)    
Max Wind Speed 36 mph    
Max Gust Speed 44 mph    
Visibility 6 miles    
Events Rain , Snow    
T = Trace of Precipitation, MM = Missing Value Source: NWS Daily Summary

Daily Weather History Graph

Daily Weather History Graph

Search for Another Location

Airport or City:

Astronomy

Mar. 20, 2012 Rise Set
Actual Time 6:51 AM PDT 7:03 PM PDT
Civil Twilight 6:20 AM PDT 7:34 PM PDT
Nautical Twilight 5:44 AM PDT 8:10 PM PDT
Astronomical Twilight 5:06 AM PDT 8:48 PM PDT
Moon 5:41 AM PDT (3/20) 5:32 PM PDT (3/20)
Length of Visible Light 13h 13m
Length of Day
12h 11m
Waning Crescent, 3% of the Moon is Illuminated
Mar 20
Waning Crescent
Mar 22
New
Mar 30
First Quarter
Apr 6
Full
Apr 13
Last Quarter

Hourly Weather History & Observations

Time (PDT) Temp. Windchill Dew Point Humidity Pressure Visibility Wind Dir Wind Speed Gust Speed Precip Events Conditions
12:53 AM 30.9 °F 26.2 °F 19.9 °F 64% 29.81 in 10.0 mi SE 4.6 mph - N/A   Overcast
1:53 AM 30.0 °F - 21.0 °F 69% 29.81 in 10.0 mi Calm Calm - N/A   Overcast
2:53 AM 33.1 °F - 21.9 °F 64% 29.78 in 10.0 mi Calm Calm - N/A   Overcast
3:41 AM 33.8 °F 28.6 °F 26.6 °F 75% 29.71 in 5.0 mi SSE 5.8 mph - 0.00 in Snow Light Snow
3:50 AM 33.8 °F 27.0 °F 26.6 °F 75% 29.70 in 1.8 mi South 8.1 mph - 0.00 in Snow Light Snow
3:53 AM 33.1 °F 25.5 °F 27.0 °F 78% 29.75 in 1.8 mi South 9.2 mph - 0.00 in Snow Light Snow
4:09 AM 32.0 °F 25.6 °F 28.4 °F 87% 29.70 in 1.2 mi SSE 6.9 mph - 0.00 in Snow Light Snow
4:44 AM 30.2 °F 24.3 °F 30.2 °F 100% 29.69 in 0.8 mi SE 5.8 mph - 0.02 in Snow Light Snow
4:51 AM 32.0 °F 26.4 °F 30.2 °F 93% 29.69 in 1.0 mi SE 5.8 mph - 0.03 in Snow Light Snow
5:03 AM 32.0 °F 25.6 °F 30.2 °F 93% 29.68 in 1.0 mi SE 6.9 mph - 0.00 in Snow Light Snow
5:12 AM 32.0 °F 24.8 °F 30.2 °F 93% 29.68 in 1.0 mi SE 8.1 mph - 0.01 in Snow Light Snow
5:53 AM 32.0 °F 24.2 °F 30.0 °F 92% 29.70 in 1.2 mi SE 9.2 mph - 0.03 in Snow Light Snow
6:15 AM 32.0 °F 24.2 °F 30.2 °F 93% 29.64 in 0.8 mi SE 9.2 mph - 0.03 in Snow Light Snow
6:48 AM 32.0 °F 24.2 °F 30.2 °F 93% 29.63 in 1.2 mi SSE 9.2 mph - 0.05 in Snow Light Snow
6:53 AM 33.1 °F 26.1 °F 30.9 °F 92% 29.68 in 1.2 mi SSE 8.1 mph - 0.05 in Snow Light Snow
7:15 AM 33.8 °F 25.3 °F 30.2 °F 87% 29.62 in 0.8 mi SSE 11.5 mph 20.7 mph 0.02 in Snow Light Snow
7:41 AM 33.8 °F 23.5 °F 30.2 °F 87% 29.60 in 1.0 mi SSE 16.1 mph - 0.02 in Snow Light Snow
7:53 AM 33.1 °F 23.4 °F 30.9 °F 92% 29.65 in 1.2 mi SSE 13.8 mph - 0.02 in Snow Light Snow
8:10 AM 33.8 °F 23.9 °F 30.2 °F 87% 29.58 in 2.5 mi SSE 15.0 mph 20.7 mph 0.00 in   Overcast
8:18 AM 33.8 °F 25.3 °F 30.2 °F 87% 29.58 in 5.0 mi SSE 11.5 mph 20.7 mph 0.00 in   Overcast
8:53 AM 34.0 °F 24.6 °F 32.0 °F 92% 29.63 in 10.0 mi South 13.8 mph 19.6 mph 0.00 in   Overcast
9:37 AM 35.6 °F 28.6 °F 32.0 °F 87% 29.57 in 10.0 mi South 9.2 mph - N/A   Overcast
9:53 AM 36.0 °F 28.5 °F 33.1 °F 89% 29.62 in 10.0 mi SSE 10.4 mph - N/A   Overcast
11:53 AM 44.1 °F 34.8 °F 35.1 °F 71% 29.62 in 10.0 mi SSW 25.3 mph 34.5 mph 0.01 in   Overcast
12:19 PM 44.6 °F 35.7 °F 35.6 °F 71% 29.57 in 10.0 mi SSW 24.2 mph 32.2 mph N/A   Overcast
12:31 PM 44.6 °F 34.9 °F 35.6 °F 71% 29.57 in 10.0 mi SSW 28.8 mph 40.3 mph N/A   Overcast
12:38 PM 44.6 °F 34.6 °F 35.6 °F 71% 29.58 in 10.0 mi SW 31.1 mph 40.3 mph N/A   Overcast
12:53 PM 45.0 °F 36.0 °F 34.0 °F 65% 29.62 in 10.0 mi SW 25.3 mph 42.6 mph N/A   Overcast
1:26 PM 41.0 °F 31.1 °F 35.6 °F 81% 29.62 in 2.5 mi WSW 23.0 mph 39.1 mph 0.03 in Rain Rain
1:41 PM 42.8 °F 34.0 °F 37.4 °F 81% 29.62 in 5.0 mi SW 20.7 mph 33.4 mph 0.04 in Rain Light Rain
1:53 PM 42.1 °F 34.5 °F 37.0 °F 82% 29.66 in 5.0 mi SSW 15.0 mph 26.5 mph 0.05 in Rain Light Rain
2:08 PM 42.8 °F 35.1 °F 37.4 °F 81% 29.63 in 10.0 mi SSW 16.1 mph 24.2 mph 0.00 in   Overcast
4:53 PM 46.9 °F - 21.9 °F 37% 29.71 in 10.0 mi WSW 24.2 mph 40.3 mph N/A   Mostly Cloudy
5:53 PM 45.0 °F 37.1 °F 27.0 °F 49% 29.74 in 10.0 mi SSW 19.6 mph 25.3 mph N/A   Scattered Clouds
6:53 PM 43.0 °F 35.4 °F 25.0 °F 49% 29.78 in 10.0 mi SW 16.1 mph 24.2 mph N/A   Clear
7:53 PM 42.1 °F 33.6 °F 25.0 °F 51% 29.81 in 10.0 mi SSW 18.4 mph 25.3 mph N/A   Scattered Clouds
8:53 PM 39.9 °F 32.9 °F 26.1 °F 58% 29.84 in 10.0 mi SSW 11.5 mph - N/A   Overcast
9:53 PM 39.9 °F 32.5 °F 28.0 °F 63% 29.87 in 10.0 mi SSW 12.7 mph - N/A   Clear
10:53 PM 37.9 °F 30.9 °F 28.0 °F 68% 29.88 in 10.0 mi South 10.4 mph - N/A   Scattered Clouds
11:53 PM 36.0 °F 27.5 °F 28.0 °F 73% 29.89 in 10.0 mi SSW 12.7 mph - N/A   Partly Cloudy